CZ-6A DEB, 61331

Orbit data source: Space-Track

CZ-6A DEB, 61331 is space debris in LEO originally from a launch on Tue, 06 Aug 2024 UTC launched from the Taiyaun Space Center, China (TSC). Debris objects in space refer to the collection of defunct objects orbiting the Earth. Examples of debris include non-operational satellites, rocket bodies, and fragments generated from explosions, collisions, or faulty payload assembly.

Loading next visibility...
Identifier
61331, 2024-140UU
Orbit
LEO
Country
Flag of CNCN / PRC
Related business
Manufacturer
SAST
Mission
Spacecraft
Bus & Motor
Unknown
Mass
Unknown
Launch date (UTC)
2024-08-06 (2 years ago)
Launch vehicle
Unknown
Launch site
Taiyaun Space Center, China (TSC)
Object type
Payload
Rocket body
Debris
Shape & HBR
Unknown shape, 0.1 m
Radar Cross Section
Medium (>0.1 m² and <1 m²)

Expand to show TLE details & history
Last TLE update: 16 hours ago

TLE from 16 hours ago
0 CZ-6A DEB
1 61331U 24140UU  26171.29026137  .00012940  00000-0  16036-2 0  9996
2 61331  89.1464 281.2837 0105444 196.7121 163.0619 14.78685782 96214
Epoch: 2026-06-20T06:57Z
TLE epoch observation values (Epoch: 2026-06-20T06:57:58.582Z)
Latitude
-0.00006°
Longitude
-91.7174°
Altitude
707.42 km
Speed
7.464 km/s
True Right ascension
18h 45m 08s
True Declination
0° 00' 00"
Sunlit
Object was in full shadow at epoch
Visualization orbit readout
Latitude
Unknown
Longitude
Unknown
Altitude
Unknown
Speed
Unknown
Apparent Right ascension
Unknown
Apparent Declination
Unknown
Sunlit
N/A
Visualization observer readout
Local Sidereal Time
10:18:04
Azimuth
Unknown
Elevation
Unknown
Doppler factor
Unknown
Orbital elements
Apogee altitude
704.242 km
Perigee altitude
556.442 km
Semi-major axis
7,008.479 km
Eccentricity
0.01054
Inclination
89.1464°
RAAN
281.2837°
Arg. of periapsis
196.7121°
True anomaly
163.40954°
Mean anomaly
163.0619°
Eccentric anomaly
163.23615°
Mean motion
3.6992 °/min
Orbital period
97.32 mins
BSTAR
0.0016036
Loading maneuver chart data...
Computing Atmospheric mass density...
Loading historical data...
Loading historical data...
Loading historical data...
Loading historical data...
Loading historical data...
Loading historical data...
Loading historical data...

Documentation

Showing up to 5 results
|